Regional Weather Roundup
Issued by NWS

Home | Current Version | Previous Version | Graphics & Text | Print | Product List | Glossary On
Versions: 1 2 3 4 5 6 7 8 9 10 11 12 13 14 15 16 17 18 19 20 21 22 23 24 25 26 27 28 29 30 31 32 33 34 35 36 37 38 39 40 41 42 43 44 45 46 47 48 49 50
000
ASUS43 KIND 250209
RWRIN

WEATHER ROUNDUP FOR INDIANA
NATIONAL WEATHER SERVICE INDIANAPOLIS IN
1000 PM EDT WED AUG 24 2016

NOTE: "FAIR" INDICATES FEW OR NO CLOUDS BELOW 12,000 FEET WITH NO
SIGNIFICANT WEATHER AND/OR OBSTRUCTIONS TO VISIBILITY.

* - STATION DOES NOT REPORT WEATHER SUCH AS PRECIPITATION OR FOG.

+ - STATION NOT QUALITY CONTROLLED BY THE NATIONAL WEATHER SERVICE.
    USE DATA WITH CAUTION...ESPECIALLY DEWPOINT AND RELATIVE
    HUMIDITY OBSERVATIONS.

INZ001>003-010>013-019-020-250300-
NORTHWEST INDIANA

CITY           SKY/WX    TMP DP  RH WIND       PRES   REMARKS
GARY /AIRPORT/ PTCLDY    79  73  83 CALM      29.98R
KNOX *+        CLEAR     72  55  56 SW3       29.99R
LA PORTE +     CLEAR     76  76 100 SW6       30.00R
MICHIGAN CITY+ CLEAR     72  72 100 MISG      29.99R
MONTICELLO +   CLEAR     74  66  75 W3        30.00S
RENSSELAER +   CLEAR     72  70  94 SW5       30.01R
VALPARAISO     PTCLDY    75  70  84 SW9       30.00R

$$

LMZ046-743>745-250300-
SOUTHERN LAKE MICHIGAN

STATION/POSITION TIME  TEMP    WIND        PRES    WAVE
                       AIR SEA DIR/SP/G            HT
                 (UTC) (F)     (DEG/KT/KT) (MB)    (FT)
BURNS HARBOR     0109   79     210/  7/ 10 1015.2R
MICHIGAN CITY    0100   78     180/  8/  9   N/A
5NW MICH CITY    0200   75 74  210/  6/  8   N/A     1

$$

INZ004-005-014>016-021>024-250300-
NORTH CENTRAL INDIANA

CITY           SKY/WX    TMP DP  RH WIND       PRES   REMARKS
GOSHEN         CLEAR     73  69  87 S7        29.99R
LOGANSPORT +   CLEAR     72  68  88 W5        30.02S
PERU/GRISSOM   CLEAR     73  73  99 W6        30.00S
ROCHESTER +    CLEAR     75  72  88 W5        30.01S
SOUTH BEND     CLEAR     74  71  91 SW8       29.99R
WARSAW +       CLEAR     73  73 100 CALM      30.00R

$$

INZ006>009-017-018-025>027-250300-
NORTHEAST INDIANA

CITY           SKY/WX    TMP DP  RH WIND       PRES   REMARKS
ANGOLA *+      PTCLDY    73  66  78 W6        29.99S
AUBURN +       CLEAR     73  70  88 SW8       30.00S
FORT WAYNE     PTCLDY    73  71  93 W3        30.00R
HUNTINGTON +   CLEAR    N/A N/A N/A W7        30.00S

$$

INZ028-029-035-036-043>045-051>053-250300-
WEST CENTRAL INDIANA

CITY           SKY/WX    TMP DP  RH WIND       PRES   REMARKS
CRAWFORDSVL +  CLEAR     75  75 100 SW3       30.04R
GREENCASTLE +  CLOUDY    77  77 100 CALM      30.06R FOG
LAFAYETTE      CLEAR     73  72  96 CALM      30.01R
TERRE HAUTE    CLOUDY    80  75  84 S5        30.04R

$$

INZ030>032-037>040-046>048-054>057-064-065-250300-
CENTRAL INDIANA

CITY           SKY/WX    TMP DP  RH WIND       PRES   REMARKS
INDIANAPOLIS   MOCLDY    78  74  87 SW9       30.03S
-EAGLE CREEK   CLEAR     79  74  84 SW6       30.02F
MARION +       CLOUDY    73  73  98 W6        30.02S
MT COMFORT *+  PTCLDY    75  73  94 SW8       30.04S
SHELBYVILLE    PTCLDY    76  72  87 S7        30.04S
ZIONSVILLE +   PTCLDY    76  74  93 SW7       30.04S

$$

INZ033-034-041-042-049-050-058-059-250300-
EAST CENTRAL INDIANA

CITY           SKY/WX    TMP DP  RH WIND       PRES   REMARKS
MUNCIE         LGT RAIN  79  73  82 SW14G21   30.01R

$$

INZ060-061-067>069-081>083-085>088-250300-
SOUTHWEST INDIANA

CITY           SKY/WX    TMP DP  RH WIND       PRES   REMARKS
EVANSVILLE     CLEAR     81  74  79 S6        30.08R
HUNTINGBURG *+ CLEAR     81  72  74 S7        30.08R
WASHINGTON +   CLEAR     79  76  89 MISG      30.05S

$$

INZ062-063-066-070>080-084-089>092-250300-
SOUTH CENTRAL AND SOUTHEAST INDIANA

CITY           SKY/WX    TMP DP  RH WIND       PRES   REMARKS
BLOOMINGTON    PTCLDY    78  74  87 SW7       30.06S
MADISON *+     PTCLDY    79  72  78 S8        30.10R

$$





USA.gov is the U.S. government's official web portal to all federal, state and local government web resources and services.